Faith, SD

11:41 PM MDT on October 17, 2017 (GMT -0600)
Faith

Weather History for KD07 - July, 2013

Change the Weather History Date:

Tuesday, July 16, 2013

  Actual Average Record
Temperature  
Mean Temperature 80 °F 73 °F  
Max Temperature 95 °F 86 °F 108 °F (2006)
Min Temperature 65 °F 60 °F 50 °F (1999)
Degree Days  
Heating Degree Days 0 0  
Month to date heating degree days 3 5  
Since 1 June heating degree days 76 95  
Since 1 July heating degree days 3 5  
Cooling Degree Days 15 8  
Month to date cooling degree days 156 116  
Year to date cooling degree days 251 216  
Since 1 June cooling degree days 238 204  
Growing Degree Days 28 (Base 50)    
Moisture  
Dew Point 52 °F    
Average Humidity 43    
Maximum Humidity 63    
Minimum Humidity 22    
Precipitation  
Precipitation 0.00 in 0.11 in 0.28 in (2012)
Month to date precipitation 0.74 1.77  
Year to date precipitation 9.64 11.16  
Sea Level Pressure  
Sea Level Pressure 30.02 in    
Wind  
Wind Speed 14 mph (South)    
Max Wind Speed 22 mph    
Max Gust Speed 31 mph    
T = Trace of Precipitation, MM = Missing Value Source: NWS Daily Summary

Daily Weather History Graph

Daily Weather History Graph

Search for Another Location

Airport or City:

Trip Planner

Search our weather history database for the weather conditions in past years. The results will help you decide how hot, cold, wet, or windy it might be!

Date:

Astronomy

Jul. 16, 2013 Rise Set
Actual Time 5:16 AM MDT 8:31 PM MDT
Civil Twilight 4:40 AM MDT 9:06 PM MDT
Nautical Twilight 3:54 AM MDT 9:53 PM MDT
Astronomical Twilight 2:56 AM MDT 10:50 PM MDT
Moon 2:08 PM MDT (7/16) No Moon Set
Length of Visible Light 16h 25m
Length of Day
15h 14m
First Quarter, 57% of the Moon is Illuminated
Jul 16
First Quarter
Jul 22
Full
Jul 29
Last Quarter
Aug 6
New
Aug 14
First Quarter

Hourly Weather History & Observations

Time (MDT) Temp. Heat Index Dew Point Humidity Pressure Visibility Wind Dir Wind Speed Gust Speed Precip Events Conditions
12:56 AM 73.0 °F - 54.0 °F 51% 29.96 in - South 16.1 mph - N/A   Unknown
1:56 AM 71.1 °F - 53.1 °F 53% 29.96 in - South 17.3 mph - N/A   Unknown
2:56 AM 70.0 °F - 53.1 °F 55% 29.96 in - South 15.0 mph - N/A   Unknown
3:56 AM 68.0 °F - 52.0 °F 56% 29.97 in - South 10.4 mph - N/A   Unknown
4:56 AM 64.9 °F - 52.0 °F 63% 29.98 in - SSE 13.8 mph - N/A   Unknown
5:56 AM 66.0 °F - 52.0 °F 60% 29.99 in - South 13.8 mph - N/A   Unknown
6:56 AM 71.1 °F - 52.0 °F 51% 30.00 in - South 12.7 mph - N/A   Unknown
7:56 AM 75.9 °F - 52.0 °F 43% 30.02 in - South 17.3 mph - N/A   Unknown
8:56 AM 80.1 °F - 52.0 °F 38% 30.03 in - SSW 13.8 mph - N/A   Unknown
9:56 AM 84.9 °F - 51.1 °F 31% 30.03 in - SSW 17.3 mph - N/A   Unknown
1:56 PM 93.0 °F - 48.0 °F 21% 30.03 in - SSW 12.7 mph 21.9 mph N/A   Unknown
2:56 PM 93.9 °F - 48.0 °F 21% 30.03 in - South 12.7 mph 20.7 mph N/A   Unknown
3:56 PM 93.9 °F - 48.9 °F 21% 30.02 in - SSE 10.4 mph 16.1 mph N/A   Unknown
4:56 PM 93.9 °F - 51.1 °F 23% 30.02 in - SSE 9.2 mph - N/A   Unknown
5:56 PM 93.0 °F - 51.1 °F 24% 30.01 in - SSE 10.4 mph - N/A   Unknown
6:56 PM 91.0 °F - 52.0 °F 26% 30.01 in - SSE 15.0 mph - N/A   Unknown
7:56 PM 86.0 °F 84.0 °F 53.1 °F 32% 30.03 in - SSE 11.5 mph - N/A   Unknown
8:56 PM 82.0 °F 81.6 °F 55.9 °F 41% 30.05 in - SSE 13.8 mph - N/A   Unknown
9:56 PM 79.0 °F - 57.0 °F 47% 30.07 in - SSE 10.4 mph - N/A   Unknown
10:56 PM 75.9 °F - 57.0 °F 52% 30.08 in - SSE 12.7 mph - N/A   Unknown
11:56 PM 73.9 °F - 57.0 °F 55% 30.09 in - SSE 12.7 mph - N/A   Unknown